TimeMST,TemperatureF,Dew PointF,Humidity,Sea Level PressureIn,VisibilityMPH,Wind Direction,Wind SpeedMPH,Gust SpeedMPH,PrecipitationIn,Events,Conditions,WindDirDegrees,DateUTC
12:55 AM,60.1,44.1,55,30.05,10.0,Calm,Calm,-,N/A,,Scattered Clouds,0,2012-11-27 07:55:00
1:55 AM,61.0,39.9,46,30.04,10.0,NE,3.5,-,N/A,,Scattered Clouds,40,2012-11-27 08:55:00
2:55 AM,59.0,36.0,42,30.03,10.0,Calm,Calm,-,N/A,,Scattered Clouds,0,2012-11-27 09:55:00
3:55 AM,59.0,34.0,39,30.04,10.0,NNE,6.9,-,N/A,,Scattered Clouds,30,2012-11-27 10:55:00
4:55 AM,59.0,32.0,36,30.05,10.0,North,6.9,-,N/A,,Partly Cloudy,10,2012-11-27 11:55:00
5:55 AM,57.9,33.1,39,30.06,10.0,North,5.8,-,N/A,,Partly Cloudy,350,2012-11-27 12:55:00
6:55 AM,57.0,34.0,42,30.07,10.0,North,3.5,-,N/A,,Scattered Clouds,10,2012-11-27 13:55:00
7:55 AM,57.9,33.1,39,30.10,10.0,NNE,5.8,-,N/A,,Scattered Clouds,20,2012-11-27 14:55:00
8:55 AM,63.0,32.0,31,30.11,10.0,NNE,8.1,-,N/A,,Scattered Clouds,30,2012-11-27 15:55:00
9:55 AM,68.0,32.0,26,30.12,10.0,NE,11.5,-,N/A,,Mostly Cloudy,50,2012-11-27 16:55:00
10:55 AM,72.0,30.9,22,30.12,10.0,NNE,12.7,-,N/A,,Mostly Cloudy,30,2012-11-27 17:55:00
11:55 AM,77.0,30.9,19,30.10,10.0,NNE,10.4,-,N/A,,Mostly Cloudy,30,2012-11-27 18:55:00
12:55 PM,79.0,30.9,17,30.06,10.0,NNE,9.2,-,N/A,,Mostly Cloudy,20,2012-11-27 19:55:00
1:55 PM,81.0,32.0,17,30.04,10.0,NNE,6.9,-,N/A,,Mostly Cloudy,30,2012-11-27 20:55:00
2:55 PM,81.0,30.9,16,30.01,10.0,NE,6.9,-,N/A,,Mostly Cloudy,40,2012-11-27 21:55:00
3:55 PM,82.0,30.0,15,30.00,10.0,NNE,8.1,-,N/A,,Mostly Cloudy,20,2012-11-27 22:55:00
4:55 PM,81.0,30.0,16,29.99,10.0,NNE,4.6,-,N/A,,Scattered Clouds,20,2012-11-27 23:55:00
5:55 PM,75.0,33.1,22,30.00,10.0,NW,3.5,-,N/A,,Mostly Cloudy,310,2012-11-28 00:55:00
6:55 PM,73.0,28.0,19,30.02,10.0,North,4.6,-,N/A,,Mostly Cloudy,360,2012-11-28 01:55:00
7:55 PM,71.1,28.0,20,30.03,10.0,NNE,3.5,-,N/A,,Mostly Cloudy,20,2012-11-28 02:55:00
8:55 PM,66.0,30.0,26,30.04,10.0,Calm,Calm,-,N/A,,Mostly Cloudy,0,2012-11-28 03:55:00
9:55 PM,64.9,32.0,29,30.04,10.0,Calm,Calm,-,N/A,,Mostly Cloudy,0,2012-11-28 04:55:00
10:55 PM,60.1,35.1,39,30.04,10.0,Calm,Calm,-,N/A,,Scattered Clouds,0,2012-11-28 05:55:00
11:55 PM,59.0,37.0,44,30.06,10.0,Calm,Calm,-,N/A,,Scattered Clouds,0,2012-11-28 06:55:00